sat.trackr.live / text

‹ back to catalog

STARLINK-6166

NORAD 56383 · 2023-061K

PAYLOAD ACTIVE UNKNOWN

§ Identity

Operator
Country
US
Launch date
2023-05-04
Launch site
AFETR
Launch vehicle
Mass (kg)
RCS (m²)

Purposes: comms

External: N2YO · Heavens-Above · Gunter

§ Orbital elements

Epoch: 2026-09-20T01:23:58.161120Z

Period
94.27 min
Inclination
43.0014°
Eccentricity
0.0001019
Mean motion
15.27576069 rev/d
Perigee alt
482.4 km
Apogee alt
483.8 km
Semi-major
6,861.2 km
B*
3.0921e-6
RAAN
180.3946°
Arg perigee
257.1564°
Mean anomaly
102.9173°
Rev number
18,647

§ Raw data

STARLINK-61661 56383U 23061K   26263.05831205 -.00000177  00000+0  30921-5 0  99952 56383  43.0014 180.3946 0001019 257.1564 102.9173 15.27576069186478

JSON: /api/v1/satellites/56383 · /tle

For live sub-satellite position, see the globe view (requires WebGL).

§ Visibility from observer

Set your observer location to see the next 7 days of passes ≥ 10°. The values pass through the URL so the page stays shareable.

No JS? Fill the form by hand. The geolocation button needs JavaScript.